TimeCST,TemperatureF,Dew PointF,Humidity,Sea Level PressureIn,VisibilityMPH,Wind Direction,Wind SpeedMPH,Gust SpeedMPH,PrecipitationIn,Events,Conditions,WindDirDegrees,DateUTC
12:15 AM,37.8,37.8,100,30.29,1.0,Calm,Calm,-,N/A,,Mist,0,2013-12-17 06:15:00
12:35 AM,37.8,37.8,100,30.30,1.2,Calm,Calm,-,N/A,,Mist,0,2013-12-17 06:35:00
12:55 AM,38.3,38.3,100,30.29,3.0,Calm,Calm,-,N/A,,Clear,0,2013-12-17 06:55:00
1:15 AM,36.5,36.5,100,30.29,0.2,Calm,Calm,-,N/A,Fog,Fog,0,2013-12-17 07:15:00
1:35 AM,35.6,35.6,100,30.29,0.2,Calm,Calm,-,N/A,Fog,Fog,0,2013-12-17 07:35:00
1:55 AM,35.6,35.6,100,30.29,0.2,Calm,Calm,-,N/A,Fog,Fog,0,2013-12-17 07:55:00
2:15 AM,35.6,35.6,100,30.29,0.2,Calm,Calm,-,N/A,Fog,Fog,0,2013-12-17 08:15:00
2:35 AM,34.9,34.9,100,30.29,0.2,Calm,Calm,-,N/A,Fog,Fog,0,2013-12-17 08:35:00
2:55 AM,34.7,34.7,100,30.29,0.2,Calm,Calm,-,N/A,Fog,Fog,0,2013-12-17 08:55:00
3:15 AM,35.8,35.8,100,30.29,0.2,Calm,Calm,-,N/A,Fog,Fog,0,2013-12-17 09:15:00
3:35 AM,36.0,36.0,100,30.30,0.2,Calm,Calm,-,N/A,Fog,Fog,0,2013-12-17 09:35:00
3:55 AM,35.6,35.6,100,30.30,4.0,Calm,Calm,-,N/A,,Clear,0,2013-12-17 09:55:00
4:15 AM,36.1,36.1,100,30.30,3.0,Calm,Calm,-,N/A,,Clear,0,2013-12-17 10:15:00
4:35 AM,35.8,35.8,100,30.31,3.0,Calm,Calm,-,N/A,,Clear,0,2013-12-17 10:35:00
4:55 AM,35.2,35.2,100,30.31,3.0,Calm,Calm,-,N/A,,Scattered Clouds,0,2013-12-17 10:55:00
5:15 AM,34.3,34.3,100,30.31,3.0,Calm,Calm,-,N/A,,Clear,0,2013-12-17 11:15:00
5:35 AM,33.6,33.6,100,30.32,1.5,Calm,Calm,-,N/A,,Mist,0,2013-12-17 11:35:00
5:55 AM,34.9,34.9,100,30.32,5.0,Calm,Calm,-,N/A,,Clear,0,2013-12-17 11:55:00
6:00 AM,35.6,35.6,100,30.32,10.0,Calm,Calm,-,N/A,,Clear,0,2013-12-17 12:00:00
6:50 AM,35.6,35.6,100,30.32,6.0,Calm,Calm,-,N/A,,Clear,0,2013-12-17 12:50:00
7:45 AM,35.6,35.6,100,30.35,6.0,Calm,Calm,-,N/A,,Clear,0,2013-12-17 13:45:00
8:50 AM,44.6,44.6,100,30.35,6.0,Calm,Calm,-,N/A,,Clear,0,2013-12-17 14:50:00
9:50 AM,51.8,46.4,82,30.35,7.0,Calm,Calm,-,N/A,,Clear,0,2013-12-17 15:50:00
10:45 AM,59.0,46.4,63,30.35,10.0,Calm,Calm,-,N/A,,Clear,0,2013-12-17 16:45:00
11:57 AM,62.6,42.8,48,30.32,10.0,Variable,5.8,-,N/A,,Clear,0,2013-12-17 17:57:00
12:50 PM,64.4,42.8,45,30.29,10.0,Variable,5.8,-,N/A,,Clear,0,2013-12-17 18:50:00
2:50 PM,66.2,35.6,32,30.26,10.0,Calm,Calm,-,N/A,,Clear,0,2013-12-17 20:50:00
3:50 PM,66.2,37.4,35,30.26,10.0,West,4.6,-,N/A,,Clear,270,2013-12-17 21:50:00
4:50 PM,64.4,42.8,45,30.27,10.0,Calm,Calm,-,N/A,,Clear,0,2013-12-17 22:50:00
5:55 PM,57.2,46.4,67,30.29,10.0,SW,4.6,-,N/A,,Clear,220,2013-12-17 23:55:00
6:55 PM,55.4,48.2,77,30.30,10.0,SW,4.6,-,N/A,,Clear,220,2013-12-18 00:55:00
7:50 PM,51.8,46.4,82,30.30,10.0,Calm,Calm,-,N/A,,Clear,0,2013-12-18 01:50:00
8:50 PM,50.0,50.0,100,30.31,10.0,Calm,Calm,-,N/A,,Clear,0,2013-12-18 02:50:00
9:50 PM,46.4,46.4,100,30.32,5.0,Calm,Calm,-,N/A,Fog,Fog,0,2013-12-18 03:50:00
10:15 PM,44.1,44.1,100,30.32,0.2,Calm,Calm,-,N/A,Fog,Fog,0,2013-12-18 04:15:00
10:35 PM,44.2,44.2,100,30.32,0.2,Calm,Calm,-,N/A,Fog,Fog,0,2013-12-18 04:35:00
10:55 PM,43.5,43.5,100,30.32,0.2,Calm,Calm,-,N/A,Fog,Fog,0,2013-12-18 04:55:00
11:15 PM,41.9,41.9,100,30.32,0.2,Calm,Calm,-,N/A,Fog,Fog,0,2013-12-18 05:15:00
11:35 PM,42.8,42.8,100,30.31,0.2,Calm,Calm,-,N/A,Fog,Fog,0,2013-12-18 05:35:00
11:55 PM,41.0,41.0,100,30.31,0.2,Calm,Calm,-,N/A,Fog,Fog,0,2013-12-18 05:55:00